<?xml version="1.0" encoding="UTF-8" standalone="no" ?>
<gpx xmlns="http://www.topografix.com/GPX/1/1" xmlns:xsi="http://www.w3.org/2001/XMLSchema-instance" xsi:schemaLocation="http://www.topografix.com/GPX/1/1 http://www.topografix.com/GPX/1/1/gpx.xsd" version="1.1" creator="VisuGPX - https://www.visugpx.com">
  <metadata>
    <name>Libin parcour de la cabane 2018 (Oct)</name>
    <desc><![CDATA[Petite promenade bien cool pour se ressourcé ]]></desc>
  </metadata>
  <wpt lat="49.97291" lon="5.29433">
    <ele>461.5</ele>
  </wpt>
  <wpt lat="49.97529" lon="5.29392">
    <ele>464.1</ele>
  </wpt>
  <wpt lat="49.97808" lon="5.29354">
    <ele>459.7</ele>
  </wpt>
  <wpt lat="49.97809" lon="5.29354">
    <ele>459.7</ele>
  </wpt>
  <wpt lat="49.97661" lon="5.28671">
    <ele>437.9</ele>
  </wpt>
  <wpt lat="49.97662" lon="5.28676">
    <ele>437.7</ele>
  </wpt>
  <wpt lat="49.97603" lon="5.28111">
    <ele>445.6</ele>
  </wpt>
  <wpt lat="49.97603" lon="5.28111">
    <ele>445.6</ele>
  </wpt>
  <wpt lat="49.97478" lon="5.28217">
    <ele>452.8</ele>
  </wpt>
  <wpt lat="49.97375" lon="5.28577">
    <ele>449.6</ele>
  </wpt>
  <wpt lat="49.97375" lon="5.28579">
    <ele>449.6</ele>
  </wpt>
  <trk>
    <name><![CDATA[Libin parcour de la cabane 2018 (Oct)_1]]></name>
    <trkseg>
      <trkpt lat="49.97315" lon="5.28845">
        <ele>451</ele>
        <time>2018-10-09T14:49:41Z</time>
      </trkpt>
      <trkpt lat="49.97315" lon="5.28843">
        <ele>451</ele>
        <time>2018-10-09T14:49:41Z</time>
      </trkpt>
      <trkpt lat="49.97315" lon="5.28843">
        <ele>451</ele>
        <time>2018-10-09T14:49:41Z</time>
      </trkpt>
      <trkpt lat="49.97316" lon="5.28845">
        <ele>451</ele>
        <time>2018-10-09T14:49:41Z</time>
      </trkpt>
      <trkpt lat="49.97317" lon="5.28848">
        <ele>452</ele>
        <time>2018-10-09T14:49:41Z</time>
      </trkpt>
      <trkpt lat="49.97323" lon="5.28855">
        <ele>454</ele>
        <time>2018-10-09T14:51:05Z</time>
      </trkpt>
      <trkpt lat="49.97323" lon="5.28857">
        <ele>454</ele>
        <time>2018-10-09T14:51:05Z</time>
      </trkpt>
      <trkpt lat="49.97323" lon="5.28859">
        <ele>454</ele>
        <time>2018-10-09T14:51:05Z</time>
      </trkpt>
      <trkpt lat="49.97322" lon="5.28863">
        <ele>454</ele>
        <time>2018-10-09T14:51:05Z</time>
      </trkpt>
      <trkpt lat="49.97322" lon="5.28869">
        <ele>454</ele>
        <time>2018-10-09T14:51:05Z</time>
      </trkpt>
      <trkpt lat="49.97322" lon="5.28873">
        <ele>454</ele>
        <time>2018-10-09T14:51:21Z</time>
      </trkpt>
      <trkpt lat="49.97319" lon="5.2888">
        <ele>454</ele>
        <time>2018-10-09T14:51:21Z</time>
      </trkpt>
      <trkpt lat="49.9732" lon="5.28886">
        <ele>455</ele>
        <time>2018-10-09T14:51:21Z</time>
      </trkpt>
      <trkpt lat="49.97319" lon="5.28891">
        <ele>454</ele>
        <time>2018-10-09T14:51:21Z</time>
      </trkpt>
      <trkpt lat="49.9732" lon="5.28903">
        <ele>455</ele>
        <time>2018-10-09T14:51:37Z</time>
      </trkpt>
      <trkpt lat="49.97318" lon="5.2891">
        <ele>455</ele>
        <time>2018-10-09T14:51:37Z</time>
      </trkpt>
      <trkpt lat="49.97318" lon="5.28918">
        <ele>455</ele>
        <time>2018-10-09T14:51:37Z</time>
      </trkpt>
      <trkpt lat="49.97316" lon="5.28926">
        <ele>455</ele>
        <time>2018-10-09T14:51:37Z</time>
      </trkpt>
      <trkpt lat="49.97313" lon="5.28933">
        <ele>455</ele>
        <time>2018-10-09T14:51:53Z</time>
      </trkpt>
      <trkpt lat="49.97314" lon="5.28939">
        <ele>455</ele>
        <time>2018-10-09T14:51:53Z</time>
      </trkpt>
      <trkpt lat="49.97314" lon="5.28947">
        <ele>455</ele>
        <time>2018-10-09T14:51:53Z</time>
      </trkpt>
      <trkpt lat="49.97312" lon="5.28954">
        <ele>455</ele>
        <time>2018-10-09T14:51:53Z</time>
      </trkpt>
      <trkpt lat="49.97313" lon="5.28963">
        <ele>457</ele>
        <time>2018-10-09T14:52:09Z</time>
      </trkpt>
      <trkpt lat="49.97311" lon="5.28969">
        <ele>457</ele>
        <time>2018-10-09T14:52:09Z</time>
      </trkpt>
      <trkpt lat="49.97309" lon="5.28976">
        <ele>457</ele>
        <time>2018-10-09T14:52:09Z</time>
      </trkpt>
      <trkpt lat="49.97309" lon="5.28981">
        <ele>457</ele>
        <time>2018-10-09T14:52:09Z</time>
      </trkpt>
      <trkpt lat="49.97309" lon="5.28986">
        <ele>457</ele>
        <time>2018-10-09T14:52:25Z</time>
      </trkpt>
      <trkpt lat="49.97307" lon="5.28989">
        <ele>459</ele>
        <time>2018-10-09T14:52:25Z</time>
      </trkpt>
      <trkpt lat="49.97307" lon="5.28993">
        <ele>459</ele>
        <time>2018-10-09T14:52:25Z</time>
      </trkpt>
      <trkpt lat="49.97306" lon="5.29">
        <ele>459</ele>
        <time>2018-10-09T14:52:25Z</time>
      </trkpt>
      <trkpt lat="49.97305" lon="5.2901">
        <ele>459</ele>
        <time>2018-10-09T14:52:41Z</time>
      </trkpt>
      <trkpt lat="49.97304" lon="5.29019">
        <ele>462</ele>
        <time>2018-10-09T14:52:41Z</time>
      </trkpt>
      <trkpt lat="49.97304" lon="5.29026">
        <ele>462</ele>
        <time>2018-10-09T14:52:41Z</time>
      </trkpt>
      <trkpt lat="49.97305" lon="5.29029">
        <ele>462</ele>
        <time>2018-10-09T14:52:41Z</time>
      </trkpt>
      <trkpt lat="49.97304" lon="5.2903">
        <ele>462</ele>
        <time>2018-10-09T14:52:57Z</time>
      </trkpt>
      <trkpt lat="49.97304" lon="5.29035">
        <ele>462</ele>
        <time>2018-10-09T14:52:57Z</time>
      </trkpt>
      <trkpt lat="49.97305" lon="5.29044">
        <ele>462</ele>
        <time>2018-10-09T14:52:57Z</time>
      </trkpt>
      <trkpt lat="49.97306" lon="5.29052">
        <ele>462</ele>
        <time>2018-10-09T14:52:57Z</time>
      </trkpt>
      <trkpt lat="49.97308" lon="5.29059">
        <ele>462</ele>
        <time>2018-10-09T14:53:17Z</time>
      </trkpt>
      <trkpt lat="49.97311" lon="5.29065">
        <ele>462</ele>
        <time>2018-10-09T14:53:17Z</time>
      </trkpt>
      <trkpt lat="49.97312" lon="5.29068">
        <ele>462</ele>
        <time>2018-10-09T14:53:17Z</time>
      </trkpt>
      <trkpt lat="49.97313" lon="5.2907">
        <ele>461</ele>
        <time>2018-10-09T14:53:17Z</time>
      </trkpt>
      <trkpt lat="49.97315" lon="5.29077">
        <ele>461</ele>
        <time>2018-10-09T14:53:17Z</time>
      </trkpt>
      <trkpt lat="49.97318" lon="5.29084">
        <ele>461</ele>
        <time>2018-10-09T14:53:33Z</time>
      </trkpt>
      <trkpt lat="49.9732" lon="5.29093">
        <ele>460</ele>
        <time>2018-10-09T14:53:33Z</time>
      </trkpt>
      <trkpt lat="49.97321" lon="5.29094">
        <ele>460</ele>
        <time>2018-10-09T14:53:33Z</time>
      </trkpt>
      <trkpt lat="49.97321" lon="5.291">
        <ele>461</ele>
        <time>2018-10-09T14:53:33Z</time>
      </trkpt>
      <trkpt lat="49.97323" lon="5.29107">
        <ele>461</ele>
        <time>2018-10-09T14:53:53Z</time>
      </trkpt>
      <trkpt lat="49.97323" lon="5.29107">
        <ele>461</ele>
        <time>2018-10-09T14:53:53Z</time>
      </trkpt>
      <trkpt lat="49.97323" lon="5.29107">
        <ele>461</ele>
        <time>2018-10-09T14:53:53Z</time>
      </trkpt>
      <trkpt lat="49.97324" lon="5.29116">
        <ele>461</ele>
        <time>2018-10-09T14:53:53Z</time>
      </trkpt>
      <trkpt lat="49.97323" lon="5.29127">
        <ele>463</ele>
        <time>2018-10-09T14:53:53Z</time>
      </trkpt>
      <trkpt lat="49.97326" lon="5.29135">
        <ele>463</ele>
        <time>2018-10-09T14:54:09Z</time>
      </trkpt>
      <trkpt lat="49.97325" lon="5.29143">
        <ele>463</ele>
        <time>2018-10-09T14:54:09Z</time>
      </trkpt>
      <trkpt lat="49.97323" lon="5.29151">
        <ele>463</ele>
        <time>2018-10-09T14:54:09Z</time>
      </trkpt>
      <trkpt lat="49.97322" lon="5.29159">
        <ele>465</ele>
        <time>2018-10-09T14:54:09Z</time>
      </trkpt>
      <trkpt lat="49.9732" lon="5.29166">
        <ele>465</ele>
        <time>2018-10-09T14:54:25Z</time>
      </trkpt>
      <trkpt lat="49.97318" lon="5.29174">
        <ele>465</ele>
        <time>2018-10-09T14:54:25Z</time>
      </trkpt>
      <trkpt lat="49.97315" lon="5.2918">
        <ele>465</ele>
        <time>2018-10-09T14:54:25Z</time>
      </trkpt>
      <trkpt lat="49.97314" lon="5.2919">
        <ele>467</ele>
        <time>2018-10-09T14:54:25Z</time>
      </trkpt>
      <trkpt lat="49.97313" lon="5.29197">
        <ele>467</ele>
        <time>2018-10-09T14:54:49Z</time>
      </trkpt>
      <trkpt lat="49.9731" lon="5.29201">
        <ele>467</ele>
        <time>2018-10-09T14:54:49Z</time>
      </trkpt>
      <trkpt lat="49.9731" lon="5.29205">
        <ele>467</ele>
        <time>2018-10-09T14:54:49Z</time>
      </trkpt>
      <trkpt lat="49.97307" lon="5.29213">
        <ele>468</ele>
        <time>2018-10-09T14:54:49Z</time>
      </trkpt>
      <trkpt lat="49.97304" lon="5.2922">
        <ele>468</ele>
        <time>2018-10-09T14:55:05Z</time>
      </trkpt>
      <trkpt lat="49.97303" lon="5.29227">
        <ele>468</ele>
        <time>2018-10-09T14:55:05Z</time>
      </trkpt>
      <trkpt lat="49.973" lon="5.29234">
        <ele>468</ele>
        <time>2018-10-09T14:55:05Z</time>
      </trkpt>
      <trkpt lat="49.973" lon="5.29235">
        <ele>468</ele>
        <time>2018-10-09T14:55:05Z</time>
      </trkpt>
      <trkpt lat="49.97298" lon="5.2924">
        <ele>468</ele>
        <time>2018-10-09T14:55:21Z</time>
      </trkpt>
      <trkpt lat="49.97294" lon="5.29246">
        <ele>468</ele>
        <time>2018-10-09T14:55:21Z</time>
      </trkpt>
      <trkpt lat="49.97292" lon="5.29253">
        <ele>468</ele>
        <time>2018-10-09T14:55:21Z</time>
      </trkpt>
      <trkpt lat="49.97291" lon="5.2926">
        <ele>467</ele>
        <time>2018-10-09T14:55:21Z</time>
      </trkpt>
      <trkpt lat="49.9729" lon="5.29267">
        <ele>466</ele>
        <time>2018-10-09T14:55:37Z</time>
      </trkpt>
      <trkpt lat="49.97288" lon="5.29274">
        <ele>466</ele>
        <time>2018-10-09T14:55:37Z</time>
      </trkpt>
      <trkpt lat="49.97285" lon="5.29279">
        <ele>466</ele>
        <time>2018-10-09T14:55:37Z</time>
      </trkpt>
      <trkpt lat="49.97282" lon="5.29283">
        <ele>466</ele>
        <time>2018-10-09T14:55:37Z</time>
      </trkpt>
      <trkpt lat="49.97282" lon="5.29284">
        <ele>466</ele>
        <time>2018-10-09T14:55:53Z</time>
      </trkpt>
      <trkpt lat="49.97282" lon="5.29285">
        <ele>466</ele>
        <time>2018-10-09T14:55:53Z</time>
      </trkpt>
      <trkpt lat="49.9728" lon="5.2929">
        <ele>466</ele>
        <time>2018-10-09T14:55:53Z</time>
      </trkpt>
      <trkpt lat="49.97278" lon="5.29297">
        <ele>465</ele>
        <time>2018-10-09T14:55:53Z</time>
      </trkpt>
      <trkpt lat="49.97276" lon="5.29304">
        <ele>465</ele>
        <time>2018-10-09T14:56:09Z</time>
      </trkpt>
      <trkpt lat="49.97272" lon="5.29311">
        <ele>465</ele>
        <time>2018-10-09T14:56:09Z</time>
      </trkpt>
      <trkpt lat="49.9727" lon="5.2932">
        <ele>464</ele>
        <time>2018-10-09T14:56:09Z</time>
      </trkpt>
      <trkpt lat="49.97267" lon="5.29327">
        <ele>464</ele>
        <time>2018-10-09T14:56:09Z</time>
      </trkpt>
      <trkpt lat="49.97264" lon="5.2934">
        <ele>464</ele>
        <time>2018-10-09T14:56:37Z</time>
      </trkpt>
      <trkpt lat="49.97264" lon="5.29342">
        <ele>465</ele>
        <time>2018-10-09T14:56:37Z</time>
      </trkpt>
      <trkpt lat="49.97262" lon="5.29346">
        <ele>465</ele>
        <time>2018-10-09T14:56:37Z</time>
      </trkpt>
      <trkpt lat="49.97259" lon="5.29352">
        <ele>465</ele>
        <time>2018-10-09T14:56:37Z</time>
      </trkpt>
      <trkpt lat="49.97257" lon="5.29356">
        <ele>465</ele>
        <time>2018-10-09T14:56:37Z</time>
      </trkpt>
      <trkpt lat="49.97254" lon="5.29362">
        <ele>465</ele>
        <time>2018-10-09T14:56:53Z</time>
      </trkpt>
      <trkpt lat="49.97253" lon="5.29368">
        <ele>465</ele>
        <time>2018-10-09T14:56:53Z</time>
      </trkpt>
      <trkpt lat="49.97251" lon="5.29377">
        <ele>467</ele>
        <time>2018-10-09T14:56:53Z</time>
      </trkpt>
      <trkpt lat="49.97253" lon="5.29381">
        <ele>467</ele>
        <time>2018-10-09T14:56:53Z</time>
      </trkpt>
      <trkpt lat="49.97255" lon="5.29386">
        <ele>467</ele>
        <time>2018-10-09T14:57:29Z</time>
      </trkpt>
      <trkpt lat="49.97258" lon="5.29388">
        <ele>467</ele>
        <time>2018-10-09T14:57:29Z</time>
      </trkpt>
      <trkpt lat="49.97258" lon="5.2939">
        <ele>467</ele>
        <time>2018-10-09T14:57:29Z</time>
      </trkpt>
      <trkpt lat="49.9726" lon="5.29394">
        <ele>467</ele>
        <time>2018-10-09T14:57:29Z</time>
      </trkpt>
      <trkpt lat="49.97261" lon="5.29399">
        <ele>467</ele>
        <time>2018-10-09T14:57:29Z</time>
      </trkpt>
      <trkpt lat="49.97265" lon="5.29403">
        <ele>467</ele>
        <time>2018-10-09T14:57:45Z</time>
      </trkpt>
      <trkpt lat="49.97267" lon="5.29406">
        <ele>467</ele>
        <time>2018-10-09T14:57:45Z</time>
      </trkpt>
      <trkpt lat="49.9727" lon="5.2941">
        <ele>467</ele>
        <time>2018-10-09T14:57:45Z</time>
      </trkpt>
      <trkpt lat="49.97274" lon="5.29416">
        <ele>467</ele>
        <time>2018-10-09T14:57:45Z</time>
      </trkpt>
      <trkpt lat="49.97278" lon="5.29421">
        <ele>467</ele>
        <time>2018-10-09T14:58:17Z</time>
      </trkpt>
      <trkpt lat="49.97282" lon="5.29424">
        <ele>467</ele>
        <time>2018-10-09T14:58:17Z</time>
      </trkpt>
      <trkpt lat="49.97285" lon="5.29425">
        <ele>467</ele>
        <time>2018-10-09T14:58:17Z</time>
      </trkpt>
      <trkpt lat="49.97286" lon="5.29426">
        <ele>467</ele>
        <time>2018-10-09T14:58:17Z</time>
      </trkpt>
      <trkpt lat="49.97288" lon="5.29428">
        <ele>467</ele>
        <time>2018-10-09T14:58:17Z</time>
      </trkpt>
      <trkpt lat="49.97292" lon="5.29433">
        <ele>467</ele>
        <time>2018-10-09T14:59:17Z</time>
      </trkpt>
      <trkpt lat="49.97292" lon="5.29434">
        <ele>466</ele>
        <time>2018-10-09T14:59:17Z</time>
      </trkpt>
      <trkpt lat="49.97293" lon="5.29435">
        <ele>466</ele>
        <time>2018-10-09T14:59:17Z</time>
      </trkpt>
      <trkpt lat="49.97295" lon="5.2944">
        <ele>466</ele>
        <time>2018-10-09T14:59:17Z</time>
      </trkpt>
      <trkpt lat="49.97299" lon="5.29441">
        <ele>466</ele>
        <time>2018-10-09T14:59:17Z</time>
      </trkpt>
      <trkpt lat="49.97302" lon="5.29442">
        <ele>466</ele>
        <time>2018-10-09T14:59:33Z</time>
      </trkpt>
      <trkpt lat="49.97306" lon="5.29442">
        <ele>466</ele>
        <time>2018-10-09T14:59:33Z</time>
      </trkpt>
      <trkpt lat="49.9731" lon="5.29442">
        <ele>466</ele>
        <time>2018-10-09T14:59:33Z</time>
      </trkpt>
      <trkpt lat="49.97315" lon="5.29441">
        <ele>466</ele>
        <time>2018-10-09T14:59:33Z</time>
      </trkpt>
      <trkpt lat="49.9732" lon="5.29441">
        <ele>466</ele>
        <time>2018-10-09T14:59:49Z</time>
      </trkpt>
      <trkpt lat="49.97323" lon="5.2944">
        <ele>466</ele>
        <time>2018-10-09T14:59:49Z</time>
      </trkpt>
      <trkpt lat="49.97328" lon="5.29437">
        <ele>466</ele>
        <time>2018-10-09T14:59:49Z</time>
      </trkpt>
      <trkpt lat="49.97333" lon="5.29435">
        <ele>466</ele>
        <time>2018-10-09T14:59:49Z</time>
      </trkpt>
      <trkpt lat="49.97335" lon="5.29435">
        <ele>466</ele>
        <time>2018-10-09T15:00:05Z</time>
      </trkpt>
      <trkpt lat="49.97338" lon="5.29435">
        <ele>466</ele>
        <time>2018-10-09T15:00:05Z</time>
      </trkpt>
      <trkpt lat="49.97341" lon="5.29435">
        <ele>466</ele>
        <time>2018-10-09T15:00:05Z</time>
      </trkpt>
      <trkpt lat="49.97344" lon="5.29435">
        <ele>466</ele>
        <time>2018-10-09T15:00:05Z</time>
      </trkpt>
      <trkpt lat="49.97345" lon="5.29434">
        <ele>466</ele>
        <time>2018-10-09T15:00:25Z</time>
      </trkpt>
      <trkpt lat="49.97346" lon="5.29433">
        <ele>466</ele>
        <time>2018-10-09T15:00:25Z</time>
      </trkpt>
      <trkpt lat="49.97349" lon="5.29434">
        <ele>469</ele>
        <time>2018-10-09T15:00:25Z</time>
      </trkpt>
      <trkpt lat="49.97354" lon="5.29433">
        <ele>469</ele>
        <time>2018-10-09T15:00:25Z</time>
      </trkpt>
      <trkpt lat="49.97358" lon="5.29433">
        <ele>469</ele>
        <time>2018-10-09T15:00:25Z</time>
      </trkpt>
      <trkpt lat="49.97361" lon="5.29432">
        <ele>469</ele>
        <time>2018-10-09T15:00:41Z</time>
      </trkpt>
      <trkpt lat="49.97368" lon="5.29429">
        <ele>471</ele>
        <time>2018-10-09T15:00:41Z</time>
      </trkpt>
      <trkpt lat="49.97378" lon="5.29429">
        <ele>475</ele>
        <time>2018-10-09T15:00:41Z</time>
      </trkpt>
      <trkpt lat="49.97383" lon="5.29429">
        <ele>475</ele>
        <time>2018-10-09T15:00:41Z</time>
      </trkpt>
      <trkpt lat="49.97389" lon="5.29426">
        <ele>475</ele>
        <time>2018-10-09T15:00:57Z</time>
      </trkpt>
      <trkpt lat="49.97393" lon="5.29424">
        <ele>475</ele>
        <time>2018-10-09T15:00:57Z</time>
      </trkpt>
      <trkpt lat="49.97398" lon="5.29423">
        <ele>475</ele>
        <time>2018-10-09T15:00:57Z</time>
      </trkpt>
      <trkpt lat="49.97398" lon="5.29423">
        <ele>475</ele>
        <time>2018-10-09T15:00:57Z</time>
      </trkpt>
      <trkpt lat="49.97399" lon="5.29423">
        <ele>475</ele>
        <time>2018-10-09T15:01:17Z</time>
      </trkpt>
      <trkpt lat="49.97399" lon="5.29422">
        <ele>475</ele>
        <time>2018-10-09T15:01:17Z</time>
      </trkpt>
      <trkpt lat="49.97404" lon="5.29421">
        <ele>479</ele>
        <time>2018-10-09T15:01:17Z</time>
      </trkpt>
      <trkpt lat="49.97408" lon="5.2942">
        <ele>479</ele>
        <time>2018-10-09T15:01:17Z</time>
      </trkpt>
      <trkpt lat="49.97414" lon="5.29419">
        <ele>479</ele>
        <time>2018-10-09T15:01:33Z</time>
      </trkpt>
      <trkpt lat="49.97418" lon="5.29417">
        <ele>479</ele>
        <time>2018-10-09T15:01:33Z</time>
      </trkpt>
      <trkpt lat="49.97423" lon="5.29416">
        <ele>479</ele>
        <time>2018-10-09T15:01:33Z</time>
      </trkpt>
      <trkpt lat="49.97428" lon="5.29416">
        <ele>479</ele>
        <time>2018-10-09T15:01:33Z</time>
      </trkpt>
      <trkpt lat="49.97434" lon="5.29416">
        <ele>481</ele>
        <time>2018-10-09T15:01:49Z</time>
      </trkpt>
      <trkpt lat="49.9744" lon="5.29414">
        <ele>481</ele>
        <time>2018-10-09T15:01:49Z</time>
      </trkpt>
      <trkpt lat="49.97445" lon="5.29414">
        <ele>481</ele>
        <time>2018-10-09T15:01:49Z</time>
      </trkpt>
      <trkpt lat="49.9745" lon="5.29413">
        <ele>481</ele>
        <time>2018-10-09T15:01:49Z</time>
      </trkpt>
      <trkpt lat="49.97454" lon="5.29414">
        <ele>481</ele>
        <time>2018-10-09T15:02:05Z</time>
      </trkpt>
      <trkpt lat="49.97459" lon="5.29413">
        <ele>479</ele>
        <time>2018-10-09T15:02:05Z</time>
      </trkpt>
      <trkpt lat="49.97464" lon="5.29412">
        <ele>479</ele>
        <time>2018-10-09T15:02:05Z</time>
      </trkpt>
      <trkpt lat="49.97467" lon="5.29411">
        <ele>479</ele>
        <time>2018-10-09T15:02:05Z</time>
      </trkpt>
      <trkpt lat="49.97472" lon="5.29412">
        <ele>479</ele>
        <time>2018-10-09T15:02:21Z</time>
      </trkpt>
      <trkpt lat="49.97475" lon="5.29408">
        <ele>479</ele>
        <time>2018-10-09T15:02:21Z</time>
      </trkpt>
      <trkpt lat="49.97477" lon="5.29403">
        <ele>479</ele>
        <time>2018-10-09T15:02:21Z</time>
      </trkpt>
      <trkpt lat="49.97481" lon="5.294">
        <ele>477</ele>
        <time>2018-10-09T15:02:21Z</time>
      </trkpt>
      <trkpt lat="49.97485" lon="5.29399">
        <ele>477</ele>
        <time>2018-10-09T15:02:37Z</time>
      </trkpt>
      <trkpt lat="49.97491" lon="5.29399">
        <ele>473</ele>
        <time>2018-10-09T15:02:37Z</time>
      </trkpt>
      <trkpt lat="49.97497" lon="5.29396">
        <ele>473</ele>
        <time>2018-10-09T15:02:37Z</time>
      </trkpt>
      <trkpt lat="49.97501" lon="5.29395">
        <ele>473</ele>
        <time>2018-10-09T15:02:37Z</time>
      </trkpt>
      <trkpt lat="49.97508" lon="5.29397">
        <ele>473</ele>
        <time>2018-10-09T15:02:53Z</time>
      </trkpt>
      <trkpt lat="49.97513" lon="5.29399">
        <ele>473</ele>
        <time>2018-10-09T15:02:53Z</time>
      </trkpt>
      <trkpt lat="49.97521" lon="5.29392">
        <ele>474</ele>
        <time>2018-10-09T15:02:53Z</time>
      </trkpt>
      <trkpt lat="49.97521" lon="5.29389">
        <ele>474</ele>
        <time>2018-10-09T15:02:53Z</time>
      </trkpt>
      <trkpt lat="49.97521" lon="5.29394">
        <ele>474</ele>
        <time>2018-10-09T15:03:09Z</time>
      </trkpt>
      <trkpt lat="49.97527" lon="5.29394">
        <ele>474</ele>
        <time>2018-10-09T15:03:09Z</time>
      </trkpt>
      <trkpt lat="49.97531" lon="5.29393">
        <ele>474</ele>
        <time>2018-10-09T15:03:09Z</time>
      </trkpt>
      <trkpt lat="49.97534" lon="5.29393">
        <ele>474</ele>
        <time>2018-10-09T15:03:09Z</time>
      </trkpt>
      <trkpt lat="49.9754" lon="5.29392">
        <ele>474</ele>
        <time>2018-10-09T15:03:25Z</time>
      </trkpt>
      <trkpt lat="49.97542" lon="5.29392">
        <ele>476</ele>
        <time>2018-10-09T15:03:25Z</time>
      </trkpt>
      <trkpt lat="49.97545" lon="5.29394">
        <ele>476</ele>
        <time>2018-10-09T15:03:25Z</time>
      </trkpt>
      <trkpt lat="49.97552" lon="5.29393">
        <ele>476</ele>
        <time>2018-10-09T15:03:25Z</time>
      </trkpt>
      <trkpt lat="49.97558" lon="5.29391">
        <ele>476</ele>
        <time>2018-10-09T15:03:41Z</time>
      </trkpt>
      <trkpt lat="49.97561" lon="5.29392">
        <ele>476</ele>
        <time>2018-10-09T15:03:41Z</time>
      </trkpt>
      <trkpt lat="49.9757" lon="5.29394">
        <ele>476</ele>
        <time>2018-10-09T15:03:41Z</time>
      </trkpt>
      <trkpt lat="49.97574" lon="5.29391">
        <ele>476</ele>
        <time>2018-10-09T15:03:41Z</time>
      </trkpt>
      <trkpt lat="49.9758" lon="5.29387">
        <ele>476</ele>
        <time>2018-10-09T15:03:57Z</time>
      </trkpt>
      <trkpt lat="49.97582" lon="5.29387">
        <ele>476</ele>
        <time>2018-10-09T15:03:57Z</time>
      </trkpt>
      <trkpt lat="49.9759" lon="5.29388">
        <ele>476</ele>
        <time>2018-10-09T15:03:57Z</time>
      </trkpt>
      <trkpt lat="49.97596" lon="5.29385">
        <ele>476</ele>
        <time>2018-10-09T15:03:57Z</time>
      </trkpt>
      <trkpt lat="49.9761" lon="5.29384">
        <ele>478</ele>
        <time>2018-10-09T15:04:41Z</time>
      </trkpt>
      <trkpt lat="49.97611" lon="5.29383">
        <ele>478</ele>
        <time>2018-10-09T15:04:41Z</time>
      </trkpt>
      <trkpt lat="49.97616" lon="5.29382">
        <ele>478</ele>
        <time>2018-10-09T15:04:41Z</time>
      </trkpt>
      <trkpt lat="49.97621" lon="5.29381">
        <ele>478</ele>
        <time>2018-10-09T15:04:41Z</time>
      </trkpt>
      <trkpt lat="49.97624" lon="5.29381">
        <ele>478</ele>
        <time>2018-10-09T15:04:41Z</time>
      </trkpt>
      <trkpt lat="49.97629" lon="5.29381">
        <ele>482</ele>
        <time>2018-10-09T15:04:57Z</time>
      </trkpt>
      <trkpt lat="49.97635" lon="5.29381">
        <ele>482</ele>
        <time>2018-10-09T15:04:57Z</time>
      </trkpt>
      <trkpt lat="49.9764" lon="5.2938">
        <ele>482</ele>
        <time>2018-10-09T15:04:57Z</time>
      </trkpt>
      <trkpt lat="49.97643" lon="5.2938">
        <ele>482</ele>
        <time>2018-10-09T15:04:57Z</time>
      </trkpt>
      <trkpt lat="49.97646" lon="5.29377">
        <ele>482</ele>
        <time>2018-10-09T15:05:13Z</time>
      </trkpt>
      <trkpt lat="49.97651" lon="5.29378">
        <ele>482</ele>
        <time>2018-10-09T15:05:13Z</time>
      </trkpt>
      <trkpt lat="49.97656" lon="5.29377">
        <ele>481</ele>
        <time>2018-10-09T15:05:13Z</time>
      </trkpt>
      <trkpt lat="49.97663" lon="5.29378">
        <ele>481</ele>
        <time>2018-10-09T15:05:13Z</time>
      </trkpt>
      <trkpt lat="49.97666" lon="5.29379">
        <ele>481</ele>
        <time>2018-10-09T15:05:29Z</time>
      </trkpt>
      <trkpt lat="49.97673" lon="5.29378">
        <ele>481</ele>
        <time>2018-10-09T15:05:29Z</time>
      </trkpt>
      <trkpt lat="49.97681" lon="5.29377">
        <ele>476</ele>
        <time>2018-10-09T15:05:29Z</time>
      </trkpt>
      <trkpt lat="49.97685" lon="5.29378">
        <ele>476</ele>
        <time>2018-10-09T15:05:29Z</time>
      </trkpt>
      <trkpt lat="49.9769" lon="5.29378">
        <ele>476</ele>
        <time>2018-10-09T15:05:45Z</time>
      </trkpt>
      <trkpt lat="49.97694" lon="5.2938">
        <ele>476</ele>
        <time>2018-10-09T15:05:45Z</time>
      </trkpt>
      <trkpt lat="49.97699" lon="5.29379">
        <ele>476</ele>
        <time>2018-10-09T15:05:45Z</time>
      </trkpt>
      <trkpt lat="49.97705" lon="5.29377">
        <ele>476</ele>
        <time>2018-10-09T15:05:45Z</time>
      </trkpt>
      <trkpt lat="49.9771" lon="5.29377">
        <ele>475</ele>
        <time>2018-10-09T15:06:01Z</time>
      </trkpt>
      <trkpt lat="49.97718" lon="5.29374">
        <ele>475</ele>
        <time>2018-10-09T15:06:01Z</time>
      </trkpt>
      <trkpt lat="49.97723" lon="5.2937">
        <ele>475</ele>
        <time>2018-10-09T15:06:01Z</time>
      </trkpt>
      <trkpt lat="49.97728" lon="5.29371">
        <ele>475</ele>
        <time>2018-10-09T15:06:01Z</time>
      </trkpt>
      <trkpt lat="49.97733" lon="5.29368">
        <ele>475</ele>
        <time>2018-10-09T15:06:17Z</time>
      </trkpt>
      <trkpt lat="49.97737" lon="5.29366">
        <ele>475</ele>
        <time>2018-10-09T15:06:17Z</time>
      </trkpt>
      <trkpt lat="49.97741" lon="5.29366">
        <ele>475</ele>
        <time>2018-10-09T15:06:17Z</time>
      </trkpt>
      <trkpt lat="49.97746" lon="5.29365">
        <ele>475</ele>
        <time>2018-10-09T15:06:17Z</time>
      </trkpt>
      <trkpt lat="49.9775" lon="5.29363">
        <ele>475</ele>
        <time>2018-10-09T15:06:33Z</time>
      </trkpt>
      <trkpt lat="49.97756" lon="5.29363">
        <ele>475</ele>
        <time>2018-10-09T15:06:33Z</time>
      </trkpt>
      <trkpt lat="49.97763" lon="5.29363">
        <ele>475</ele>
        <time>2018-10-09T15:06:33Z</time>
      </trkpt>
      <trkpt lat="49.97767" lon="5.29363">
        <ele>471</ele>
        <time>2018-10-09T15:06:33Z</time>
      </trkpt>
      <trkpt lat="49.97771" lon="5.29362">
        <ele>471</ele>
        <time>2018-10-09T15:06:49Z</time>
      </trkpt>
      <trkpt lat="49.97775" lon="5.29361">
        <ele>471</ele>
        <time>2018-10-09T15:06:49Z</time>
      </trkpt>
      <trkpt lat="49.9778" lon="5.2936">
        <ele>471</ele>
        <time>2018-10-09T15:06:49Z</time>
      </trkpt>
      <trkpt lat="49.97787" lon="5.29359">
        <ele>471</ele>
        <time>2018-10-09T15:06:49Z</time>
      </trkpt>
      <trkpt lat="49.97791" lon="5.29358">
        <ele>471</ele>
        <time>2018-10-09T15:07:05Z</time>
      </trkpt>
      <trkpt lat="49.97796" lon="5.29358">
        <ele>468</ele>
        <time>2018-10-09T15:07:05Z</time>
      </trkpt>
      <trkpt lat="49.97801" lon="5.29356">
        <ele>468</ele>
        <time>2018-10-09T15:07:05Z</time>
      </trkpt>
      <trkpt lat="49.97807" lon="5.29356">
        <ele>468</ele>
        <time>2018-10-09T15:07:05Z</time>
      </trkpt>
      <trkpt lat="49.97809" lon="5.29354">
        <ele>468</ele>
        <time>2018-10-09T15:08:13Z</time>
      </trkpt>
      <trkpt lat="49.97812" lon="5.29352">
        <ele>468</ele>
        <time>2018-10-09T15:08:13Z</time>
      </trkpt>
      <trkpt lat="49.97819" lon="5.2935">
        <ele>468</ele>
        <time>2018-10-09T15:08:13Z</time>
      </trkpt>
      <trkpt lat="49.97825" lon="5.29348">
        <ele>468</ele>
        <time>2018-10-09T15:08:13Z</time>
      </trkpt>
      <trkpt lat="49.97829" lon="5.29345">
        <ele>469</ele>
        <time>2018-10-09T15:08:29Z</time>
      </trkpt>
      <trkpt lat="49.97832" lon="5.29338">
        <ele>469</ele>
        <time>2018-10-09T15:08:29Z</time>
      </trkpt>
      <trkpt lat="49.97831" lon="5.29329">
        <ele>469</ele>
        <time>2018-10-09T15:08:29Z</time>
      </trkpt>
      <trkpt lat="49.9783" lon="5.2932">
        <ele>469</ele>
        <time>2018-10-09T15:08:29Z</time>
      </trkpt>
      <trkpt lat="49.9783" lon="5.29316">
        <ele>471</ele>
        <time>2018-10-09T15:08:45Z</time>
      </trkpt>
      <trkpt lat="49.97829" lon="5.29309">
        <ele>471</ele>
        <time>2018-10-09T15:08:45Z</time>
      </trkpt>
      <trkpt lat="49.97828" lon="5.29301">
        <ele>471</ele>
        <time>2018-10-09T15:08:45Z</time>
      </trkpt>
      <trkpt lat="49.97828" lon="5.29293">
        <ele>471</ele>
        <time>2018-10-09T15:08:45Z</time>
      </trkpt>
      <trkpt lat="49.97827" lon="5.29286">
        <ele>470</ele>
        <time>2018-10-09T15:09:01Z</time>
      </trkpt>
      <trkpt lat="49.97825" lon="5.29278">
        <ele>470</ele>
        <time>2018-10-09T15:09:01Z</time>
      </trkpt>
      <trkpt lat="49.97827" lon="5.29269">
        <ele>470</ele>
        <time>2018-10-09T15:09:01Z</time>
      </trkpt>
      <trkpt lat="49.97828" lon="5.29262">
        <ele>468</ele>
        <time>2018-10-09T15:09:01Z</time>
      </trkpt>
      <trkpt lat="49.97827" lon="5.29252">
        <ele>468</ele>
        <time>2018-10-09T15:09:17Z</time>
      </trkpt>
      <trkpt lat="49.97826" lon="5.29244">
        <ele>468</ele>
        <time>2018-10-09T15:09:17Z</time>
      </trkpt>
      <trkpt lat="49.97825" lon="5.29237">
        <ele>468</ele>
        <time>2018-10-09T15:09:17Z</time>
      </trkpt>
      <trkpt lat="49.97825" lon="5.29229">
        <ele>465</ele>
        <time>2018-10-09T15:09:17Z</time>
      </trkpt>
      <trkpt lat="49.97825" lon="5.29227">
        <ele>465</ele>
        <time>2018-10-09T15:09:37Z</time>
      </trkpt>
      <trkpt lat="49.97825" lon="5.29229">
        <ele>465</ele>
        <time>2018-10-09T15:09:37Z</time>
      </trkpt>
      <trkpt lat="49.97824" lon="5.29224">
        <ele>465</ele>
        <time>2018-10-09T15:09:37Z</time>
      </trkpt>
      <trkpt lat="49.97823" lon="5.29215">
        <ele>465</ele>
        <time>2018-10-09T15:09:37Z</time>
      </trkpt>
      <trkpt lat="49.9782" lon="5.29206">
        <ele>463</ele>
        <time>2018-10-09T15:09:37Z</time>
      </trkpt>
      <trkpt lat="49.97819" lon="5.29199">
        <ele>469</ele>
        <time>2018-10-09T15:09:53Z</time>
      </trkpt>
      <trkpt lat="49.97816" lon="5.29191">
        <ele>469</ele>
        <time>2018-10-09T15:09:53Z</time>
      </trkpt>
      <trkpt lat="49.97815" lon="5.29181">
        <ele>469</ele>
        <time>2018-10-09T15:09:53Z</time>
      </trkpt>
      <trkpt lat="49.97815" lon="5.29173">
        <ele>468</ele>
        <time>2018-10-09T15:09:53Z</time>
      </trkpt>
      <trkpt lat="49.97814" lon="5.29165">
        <ele>468</ele>
        <time>2018-10-09T15:10:09Z</time>
      </trkpt>
      <trkpt lat="49.97813" lon="5.29156">
        <ele>468</ele>
        <time>2018-10-09T15:10:09Z</time>
      </trkpt>
      <trkpt lat="49.97813" lon="5.29149">
        <ele>466</ele>
        <time>2018-10-09T15:10:09Z</time>
      </trkpt>
      <trkpt lat="49.97812" lon="5.2914">
        <ele>466</ele>
        <time>2018-10-09T15:10:09Z</time>
      </trkpt>
      <trkpt lat="49.97811" lon="5.29133">
        <ele>466</ele>
        <time>2018-10-09T15:10:25Z</time>
      </trkpt>
      <trkpt lat="49.9781" lon="5.29125">
        <ele>464</ele>
        <time>2018-10-09T15:10:25Z</time>
      </trkpt>
      <trkpt lat="49.97808" lon="5.29116">
        <ele>464</ele>
        <time>2018-10-09T15:10:25Z</time>
      </trkpt>
      <trkpt lat="49.97807" lon="5.29109">
        <ele>464</ele>
        <time>2018-10-09T15:10:25Z</time>
      </trkpt>
      <trkpt lat="49.97805" lon="5.29102">
        <ele>464</ele>
        <time>2018-10-09T15:10:41Z</time>
      </trkpt>
      <trkpt lat="49.97804" lon="5.29093">
        <ele>461</ele>
        <time>2018-10-09T15:10:41Z</time>
      </trkpt>
      <trkpt lat="49.97801" lon="5.29086">
        <ele>461</ele>
        <time>2018-10-09T15:10:41Z</time>
      </trkpt>
      <trkpt lat="49.97799" lon="5.29078">
        <ele>461</ele>
        <time>2018-10-09T15:10:41Z</time>
      </trkpt>
      <trkpt lat="49.97797" lon="5.29071">
        <ele>461</ele>
        <time>2018-10-09T15:10:57Z</time>
      </trkpt>
      <trkpt lat="49.97795" lon="5.29062">
        <ele>458</ele>
        <time>2018-10-09T15:10:57Z</time>
      </trkpt>
      <trkpt lat="49.97793" lon="5.29055">
        <ele>458</ele>
        <time>2018-10-09T15:10:57Z</time>
      </trkpt>
      <trkpt lat="49.97791" lon="5.29049">
        <ele>463</ele>
        <time>2018-10-09T15:10:57Z</time>
      </trkpt>
      <trkpt lat="49.97789" lon="5.29041">
        <ele>460</ele>
        <time>2018-10-09T15:11:13Z</time>
      </trkpt>
      <trkpt lat="49.97788" lon="5.29033">
        <ele>460</ele>
        <time>2018-10-09T15:11:13Z</time>
      </trkpt>
      <trkpt lat="49.97786" lon="5.29025">
        <ele>460</ele>
        <time>2018-10-09T15:11:13Z</time>
      </trkpt>
      <trkpt lat="49.97782" lon="5.29017">
        <ele>460</ele>
        <time>2018-10-09T15:11:13Z</time>
      </trkpt>
      <trkpt lat="49.97781" lon="5.2901">
        <ele>458</ele>
        <time>2018-10-09T15:11:29Z</time>
      </trkpt>
      <trkpt lat="49.97779" lon="5.29004">
        <ele>458</ele>
        <time>2018-10-09T15:11:29Z</time>
      </trkpt>
      <trkpt lat="49.97778" lon="5.28995">
        <ele>458</ele>
        <time>2018-10-09T15:11:29Z</time>
      </trkpt>
      <trkpt lat="49.97775" lon="5.28987">
        <ele>458</ele>
        <time>2018-10-09T15:11:29Z</time>
      </trkpt>
      <trkpt lat="49.97771" lon="5.2898">
        <ele>456</ele>
        <time>2018-10-09T15:11:45Z</time>
      </trkpt>
      <trkpt lat="49.97768" lon="5.28973">
        <ele>456</ele>
        <time>2018-10-09T15:11:45Z</time>
      </trkpt>
      <trkpt lat="49.97765" lon="5.28965">
        <ele>456</ele>
        <time>2018-10-09T15:11:45Z</time>
      </trkpt>
      <trkpt lat="49.97762" lon="5.28959">
        <ele>459</ele>
        <time>2018-10-09T15:11:45Z</time>
      </trkpt>
      <trkpt lat="49.97759" lon="5.28952">
        <ele>457</ele>
        <time>2018-10-09T15:12:01Z</time>
      </trkpt>
      <trkpt lat="49.97757" lon="5.28945">
        <ele>457</ele>
        <time>2018-10-09T15:12:01Z</time>
      </trkpt>
      <trkpt lat="49.97753" lon="5.2894">
        <ele>457</ele>
        <time>2018-10-09T15:12:01Z</time>
      </trkpt>
      <trkpt lat="49.97751" lon="5.28934">
        <ele>457</ele>
        <time>2018-10-09T15:12:01Z</time>
      </trkpt>
      <trkpt lat="49.97748" lon="5.28927">
        <ele>453</ele>
        <time>2018-10-09T15:12:17Z</time>
      </trkpt>
      <trkpt lat="49.97743" lon="5.28921">
        <ele>453</ele>
        <time>2018-10-09T15:12:17Z</time>
      </trkpt>
      <trkpt lat="49.97739" lon="5.28914">
        <ele>453</ele>
        <time>2018-10-09T15:12:17Z</time>
      </trkpt>
      <trkpt lat="49.97736" lon="5.2891">
        <ele>456</ele>
        <time>2018-10-09T15:12:17Z</time>
      </trkpt>
      <trkpt lat="49.97733" lon="5.28903">
        <ele>456</ele>
        <time>2018-10-09T15:12:33Z</time>
      </trkpt>
      <trkpt lat="49.9773" lon="5.28897">
        <ele>452</ele>
        <time>2018-10-09T15:12:33Z</time>
      </trkpt>
      <trkpt lat="49.97726" lon="5.28892">
        <ele>452</ele>
        <time>2018-10-09T15:12:33Z</time>
      </trkpt>
      <trkpt lat="49.97722" lon="5.28886">
        <ele>452</ele>
        <time>2018-10-09T15:12:33Z</time>
      </trkpt>
      <trkpt lat="49.97719" lon="5.2888">
        <ele>452</ele>
        <time>2018-10-09T15:12:49Z</time>
      </trkpt>
      <trkpt lat="49.97715" lon="5.28875">
        <ele>447</ele>
        <time>2018-10-09T15:12:49Z</time>
      </trkpt>
      <trkpt lat="49.97713" lon="5.28867">
        <ele>447</ele>
        <time>2018-10-09T15:12:49Z</time>
      </trkpt>
      <trkpt lat="49.9771" lon="5.28862">
        <ele>447</ele>
        <time>2018-10-09T15:12:49Z</time>
      </trkpt>
      <trkpt lat="49.97711" lon="5.28865">
        <ele>447</ele>
        <time>2018-10-09T15:13:05Z</time>
      </trkpt>
      <trkpt lat="49.97709" lon="5.28858">
        <ele>447</ele>
        <time>2018-10-09T15:13:05Z</time>
      </trkpt>
      <trkpt lat="49.97705" lon="5.28851">
        <ele>450</ele>
        <time>2018-10-09T15:13:05Z</time>
      </trkpt>
      <trkpt lat="49.97701" lon="5.28845">
        <ele>447</ele>
        <time>2018-10-09T15:13:05Z</time>
      </trkpt>
      <trkpt lat="49.97696" lon="5.28839">
        <ele>447</ele>
        <time>2018-10-09T15:13:21Z</time>
      </trkpt>
      <trkpt lat="49.97693" lon="5.28834">
        <ele>447</ele>
        <time>2018-10-09T15:13:21Z</time>
      </trkpt>
      <trkpt lat="49.9769" lon="5.28828">
        <ele>447</ele>
        <time>2018-10-09T15:13:21Z</time>
      </trkpt>
      <trkpt lat="49.97688" lon="5.28821">
        <ele>447</ele>
        <time>2018-10-09T15:13:21Z</time>
      </trkpt>
      <trkpt lat="49.97686" lon="5.28813">
        <ele>443</ele>
        <time>2018-10-09T15:13:37Z</time>
      </trkpt>
      <trkpt lat="49.97684" lon="5.28805">
        <ele>443</ele>
        <time>2018-10-09T15:13:37Z</time>
      </trkpt>
      <trkpt lat="49.97682" lon="5.28799">
        <ele>443</ele>
        <time>2018-10-09T15:13:37Z</time>
      </trkpt>
      <trkpt lat="49.97682" lon="5.2879">
        <ele>440</ele>
        <time>2018-10-09T15:13:37Z</time>
      </trkpt>
      <trkpt lat="49.97681" lon="5.28783">
        <ele>440</ele>
        <time>2018-10-09T15:13:53Z</time>
      </trkpt>
      <trkpt lat="49.9768" lon="5.28774">
        <ele>442</ele>
        <time>2018-10-09T15:13:53Z</time>
      </trkpt>
      <trkpt lat="49.97678" lon="5.28766">
        <ele>442</ele>
        <time>2018-10-09T15:13:53Z</time>
      </trkpt>
      <trkpt lat="49.97676" lon="5.28758">
        <ele>441</ele>
        <time>2018-10-09T15:13:53Z</time>
      </trkpt>
      <trkpt lat="49.97675" lon="5.2875">
        <ele>441</ele>
        <time>2018-10-09T15:14:09Z</time>
      </trkpt>
      <trkpt lat="49.97674" lon="5.28742">
        <ele>441</ele>
        <time>2018-10-09T15:14:09Z</time>
      </trkpt>
      <trkpt lat="49.97673" lon="5.28733">
        <ele>440</ele>
        <time>2018-10-09T15:14:09Z</time>
      </trkpt>
      <trkpt lat="49.97669" lon="5.28725">
        <ele>440</ele>
        <time>2018-10-09T15:14:09Z</time>
      </trkpt>
      <trkpt lat="49.97666" lon="5.28717">
        <ele>440</ele>
        <time>2018-10-09T15:14:25Z</time>
      </trkpt>
      <trkpt lat="49.97666" lon="5.28708">
        <ele>438</ele>
        <time>2018-10-09T15:14:25Z</time>
      </trkpt>
      <trkpt lat="49.97665" lon="5.28701">
        <ele>438</ele>
        <time>2018-10-09T15:14:25Z</time>
      </trkpt>
      <trkpt lat="49.97664" lon="5.28693">
        <ele>438</ele>
        <time>2018-10-09T15:14:25Z</time>
      </trkpt>
      <trkpt lat="49.97662" lon="5.28676">
        <ele>438</ele>
        <time>2018-10-09T15:15:49Z</time>
      </trkpt>
      <trkpt lat="49.97662" lon="5.28672">
        <ele>438</ele>
        <time>2018-10-09T15:15:49Z</time>
      </trkpt>
      <trkpt lat="49.97662" lon="5.28664">
        <ele>438</ele>
        <time>2018-10-09T15:15:49Z</time>
      </trkpt>
      <trkpt lat="49.97662" lon="5.28657">
        <ele>438</ele>
        <time>2018-10-09T15:15:49Z</time>
      </trkpt>
      <trkpt lat="49.97662" lon="5.28651">
        <ele>439</ele>
        <time>2018-10-09T15:15:49Z</time>
      </trkpt>
      <trkpt lat="49.9766" lon="5.28643">
        <ele>439</ele>
        <time>2018-10-09T15:16:05Z</time>
      </trkpt>
      <trkpt lat="49.97659" lon="5.28636">
        <ele>439</ele>
        <time>2018-10-09T15:16:05Z</time>
      </trkpt>
      <trkpt lat="49.97658" lon="5.2863">
        <ele>439</ele>
        <time>2018-10-09T15:16:05Z</time>
      </trkpt>
      <trkpt lat="49.97656" lon="5.28624">
        <ele>440</ele>
        <time>2018-10-09T15:16:05Z</time>
      </trkpt>
      <trkpt lat="49.97654" lon="5.28615">
        <ele>440</ele>
        <time>2018-10-09T15:16:21Z</time>
      </trkpt>
      <trkpt lat="49.97654" lon="5.28607">
        <ele>440</ele>
        <time>2018-10-09T15:16:21Z</time>
      </trkpt>
      <trkpt lat="49.97653" lon="5.286">
        <ele>440</ele>
        <time>2018-10-09T15:16:21Z</time>
      </trkpt>
      <trkpt lat="49.97653" lon="5.28597">
        <ele>448</ele>
        <time>2018-10-09T15:16:21Z</time>
      </trkpt>
      <trkpt lat="49.97653" lon="5.28598">
        <ele>440</ele>
        <time>2018-10-09T15:16:37Z</time>
      </trkpt>
      <trkpt lat="49.97653" lon="5.28595">
        <ele>440</ele>
        <time>2018-10-09T15:16:37Z</time>
      </trkpt>
      <trkpt lat="49.97652" lon="5.28586">
        <ele>448</ele>
        <time>2018-10-09T15:16:37Z</time>
      </trkpt>
      <trkpt lat="49.97651" lon="5.2858">
        <ele>448</ele>
        <time>2018-10-09T15:16:37Z</time>
      </trkpt>
      <trkpt lat="49.9765" lon="5.28572">
        <ele>448</ele>
        <time>2018-10-09T15:16:53Z</time>
      </trkpt>
      <trkpt lat="49.97649" lon="5.28564">
        <ele>448</ele>
        <time>2018-10-09T15:16:53Z</time>
      </trkpt>
      <trkpt lat="49.97647" lon="5.28556">
        <ele>448</ele>
        <time>2018-10-09T15:16:53Z</time>
      </trkpt>
      <trkpt lat="49.97646" lon="5.28548">
        <ele>448</ele>
        <time>2018-10-09T15:16:53Z</time>
      </trkpt>
      <trkpt lat="49.97645" lon="5.28541">
        <ele>450</ele>
        <time>2018-10-09T15:17:09Z</time>
      </trkpt>
      <trkpt lat="49.97643" lon="5.28532">
        <ele>450</ele>
        <time>2018-10-09T15:17:09Z</time>
      </trkpt>
      <trkpt lat="49.97642" lon="5.28525">
        <ele>450</ele>
        <time>2018-10-09T15:17:09Z</time>
      </trkpt>
      <trkpt lat="49.97642" lon="5.28523">
        <ele>450</ele>
        <time>2018-10-09T15:17:09Z</time>
      </trkpt>
      <trkpt lat="49.97642" lon="5.28522">
        <ele>450</ele>
        <time>2018-10-09T15:17:29Z</time>
      </trkpt>
      <trkpt lat="49.9764" lon="5.28516">
        <ele>450</ele>
        <time>2018-10-09T15:17:29Z</time>
      </trkpt>
      <trkpt lat="49.97639" lon="5.28506">
        <ele>454</ele>
        <time>2018-10-09T15:17:29Z</time>
      </trkpt>
      <trkpt lat="49.97638" lon="5.28499">
        <ele>454</ele>
        <time>2018-10-09T15:17:29Z</time>
      </trkpt>
      <trkpt lat="49.97638" lon="5.28493">
        <ele>454</ele>
        <time>2018-10-09T15:17:57Z</time>
      </trkpt>
      <trkpt lat="49.97638" lon="5.28494">
        <ele>454</ele>
        <time>2018-10-09T15:17:57Z</time>
      </trkpt>
      <trkpt lat="49.97638" lon="5.28492">
        <ele>454</ele>
        <time>2018-10-09T15:17:57Z</time>
      </trkpt>
      <trkpt lat="49.97637" lon="5.28483">
        <ele>456</ele>
        <time>2018-10-09T15:17:57Z</time>
      </trkpt>
      <trkpt lat="49.97635" lon="5.28474">
        <ele>456</ele>
        <time>2018-10-09T15:17:57Z</time>
      </trkpt>
      <trkpt lat="49.97635" lon="5.28469">
        <ele>456</ele>
        <time>2018-10-09T15:18:13Z</time>
      </trkpt>
      <trkpt lat="49.97634" lon="5.28461">
        <ele>456</ele>
        <time>2018-10-09T15:18:13Z</time>
      </trkpt>
      <trkpt lat="49.97633" lon="5.28454">
        <ele>456</ele>
        <time>2018-10-09T15:18:13Z</time>
      </trkpt>
      <trkpt lat="49.97632" lon="5.28445">
        <ele>456</ele>
        <time>2018-10-09T15:18:13Z</time>
      </trkpt>
      <trkpt lat="49.97631" lon="5.28437">
        <ele>456</ele>
        <time>2018-10-09T15:18:29Z</time>
      </trkpt>
      <trkpt lat="49.9763" lon="5.28429">
        <ele>455</ele>
        <time>2018-10-09T15:18:29Z</time>
      </trkpt>
      <trkpt lat="49.9763" lon="5.2842">
        <ele>455</ele>
        <time>2018-10-09T15:18:29Z</time>
      </trkpt>
      <trkpt lat="49.97628" lon="5.28412">
        <ele>455</ele>
        <time>2018-10-09T15:18:29Z</time>
      </trkpt>
      <trkpt lat="49.97626" lon="5.28404">
        <ele>455</ele>
        <time>2018-10-09T15:18:45Z</time>
      </trkpt>
      <trkpt lat="49.97625" lon="5.28395">
        <ele>455</ele>
        <time>2018-10-09T15:18:45Z</time>
      </trkpt>
      <trkpt lat="49.97624" lon="5.28387">
        <ele>461</ele>
        <time>2018-10-09T15:18:45Z</time>
      </trkpt>
      <trkpt lat="49.97623" lon="5.2838">
        <ele>461</ele>
        <time>2018-10-09T15:18:45Z</time>
      </trkpt>
      <trkpt lat="49.97623" lon="5.28372">
        <ele>459</ele>
        <time>2018-10-09T15:19:01Z</time>
      </trkpt>
      <trkpt lat="49.9762" lon="5.28363">
        <ele>459</ele>
        <time>2018-10-09T15:19:01Z</time>
      </trkpt>
      <trkpt lat="49.97619" lon="5.28355">
        <ele>459</ele>
        <time>2018-10-09T15:19:01Z</time>
      </trkpt>
      <trkpt lat="49.97618" lon="5.28348">
        <ele>459</ele>
        <time>2018-10-09T15:19:01Z</time>
      </trkpt>
      <trkpt lat="49.97616" lon="5.28338">
        <ele>458</ele>
        <time>2018-10-09T15:19:17Z</time>
      </trkpt>
      <trkpt lat="49.97615" lon="5.28329">
        <ele>458</ele>
        <time>2018-10-09T15:19:17Z</time>
      </trkpt>
      <trkpt lat="49.97614" lon="5.2832">
        <ele>458</ele>
        <time>2018-10-09T15:19:17Z</time>
      </trkpt>
      <trkpt lat="49.97613" lon="5.28313">
        <ele>457</ele>
        <time>2018-10-09T15:19:17Z</time>
      </trkpt>
      <trkpt lat="49.97612" lon="5.28305">
        <ele>457</ele>
        <time>2018-10-09T15:19:41Z</time>
      </trkpt>
      <trkpt lat="49.9761" lon="5.28298">
        <ele>457</ele>
        <time>2018-10-09T15:19:41Z</time>
      </trkpt>
      <trkpt lat="49.9761" lon="5.28292">
        <ele>457</ele>
        <time>2018-10-09T15:19:41Z</time>
      </trkpt>
      <trkpt lat="49.9761" lon="5.28292">
        <ele>457</ele>
        <time>2018-10-09T15:19:41Z</time>
      </trkpt>
      <trkpt lat="49.9761" lon="5.28283">
        <ele>457</ele>
        <time>2018-10-09T15:19:41Z</time>
      </trkpt>
      <trkpt lat="49.9761" lon="5.28276">
        <ele>457</ele>
        <time>2018-10-09T15:19:57Z</time>
      </trkpt>
      <trkpt lat="49.97608" lon="5.28265">
        <ele>457</ele>
        <time>2018-10-09T15:19:57Z</time>
      </trkpt>
      <trkpt lat="49.97606" lon="5.28258">
        <ele>457</ele>
        <time>2018-10-09T15:19:57Z</time>
      </trkpt>
      <trkpt lat="49.97603" lon="5.2825">
        <ele>457</ele>
        <time>2018-10-09T15:19:57Z</time>
      </trkpt>
      <trkpt lat="49.97603" lon="5.28242">
        <ele>457</ele>
        <time>2018-10-09T15:20:13Z</time>
      </trkpt>
      <trkpt lat="49.97603" lon="5.28234">
        <ele>458</ele>
        <time>2018-10-09T15:20:13Z</time>
      </trkpt>
      <trkpt lat="49.97603" lon="5.28227">
        <ele>458</ele>
        <time>2018-10-09T15:20:13Z</time>
      </trkpt>
      <trkpt lat="49.97602" lon="5.2822">
        <ele>458</ele>
        <time>2018-10-09T15:20:13Z</time>
      </trkpt>
      <trkpt lat="49.97602" lon="5.2821">
        <ele>458</ele>
        <time>2018-10-09T15:20:29Z</time>
      </trkpt>
      <trkpt lat="49.97601" lon="5.28202">
        <ele>459</ele>
        <time>2018-10-09T15:20:29Z</time>
      </trkpt>
      <trkpt lat="49.97601" lon="5.28193">
        <ele>459</ele>
        <time>2018-10-09T15:20:29Z</time>
      </trkpt>
      <trkpt lat="49.976" lon="5.28185">
        <ele>459</ele>
        <time>2018-10-09T15:20:29Z</time>
      </trkpt>
      <trkpt lat="49.97599" lon="5.28178">
        <ele>461</ele>
        <time>2018-10-09T15:20:45Z</time>
      </trkpt>
      <trkpt lat="49.97601" lon="5.2817">
        <ele>461</ele>
        <time>2018-10-09T15:20:45Z</time>
      </trkpt>
      <trkpt lat="49.97601" lon="5.28162">
        <ele>461</ele>
        <time>2018-10-09T15:20:45Z</time>
      </trkpt>
      <trkpt lat="49.97601" lon="5.28155">
        <ele>461</ele>
        <time>2018-10-09T15:20:45Z</time>
      </trkpt>
      <trkpt lat="49.97602" lon="5.28148">
        <ele>460</ele>
        <time>2018-10-09T15:21:01Z</time>
      </trkpt>
      <trkpt lat="49.97602" lon="5.2814">
        <ele>460</ele>
        <time>2018-10-09T15:21:01Z</time>
      </trkpt>
      <trkpt lat="49.97603" lon="5.28131">
        <ele>460</ele>
        <time>2018-10-09T15:21:01Z</time>
      </trkpt>
      <trkpt lat="49.97603" lon="5.28122">
        <ele>456</ele>
        <time>2018-10-09T15:21:01Z</time>
      </trkpt>
      <trkpt lat="49.97604" lon="5.28106">
        <ele>456</ele>
        <time>2018-10-09T15:22:53Z</time>
      </trkpt>
      <trkpt lat="49.976" lon="5.28103">
        <ele>456</ele>
        <time>2018-10-09T15:22:53Z</time>
      </trkpt>
      <trkpt lat="49.97596" lon="5.28099">
        <ele>459</ele>
        <time>2018-10-09T15:22:53Z</time>
      </trkpt>
      <trkpt lat="49.97592" lon="5.28098">
        <ele>459</ele>
        <time>2018-10-09T15:22:53Z</time>
      </trkpt>
      <trkpt lat="49.97588" lon="5.28098">
        <ele>459</ele>
        <time>2018-10-09T15:22:53Z</time>
      </trkpt>
      <trkpt lat="49.97585" lon="5.28099">
        <ele>459</ele>
        <time>2018-10-09T15:23:17Z</time>
      </trkpt>
      <trkpt lat="49.97585" lon="5.28096">
        <ele>453</ele>
        <time>2018-10-09T15:23:17Z</time>
      </trkpt>
      <trkpt lat="49.97584" lon="5.28092">
        <ele>453</ele>
        <time>2018-10-09T15:23:17Z</time>
      </trkpt>
      <trkpt lat="49.97581" lon="5.28092">
        <ele>453</ele>
        <time>2018-10-09T15:23:17Z</time>
      </trkpt>
      <trkpt lat="49.97577" lon="5.28093">
        <ele>453</ele>
        <time>2018-10-09T15:23:17Z</time>
      </trkpt>
      <trkpt lat="49.97574" lon="5.28092">
        <ele>453</ele>
        <time>2018-10-09T15:23:53Z</time>
      </trkpt>
      <trkpt lat="49.97573" lon="5.28092">
        <ele>453</ele>
        <time>2018-10-09T15:23:53Z</time>
      </trkpt>
      <trkpt lat="49.97569" lon="5.2809">
        <ele>455</ele>
        <time>2018-10-09T15:23:53Z</time>
      </trkpt>
      <trkpt lat="49.97565" lon="5.28091">
        <ele>455</ele>
        <time>2018-10-09T15:23:53Z</time>
      </trkpt>
      <trkpt lat="49.9756" lon="5.28092">
        <ele>455</ele>
        <time>2018-10-09T15:23:53Z</time>
      </trkpt>
      <trkpt lat="49.97553" lon="5.28087">
        <ele>455</ele>
        <time>2018-10-09T15:24:09Z</time>
      </trkpt>
      <trkpt lat="49.97549" lon="5.28087">
        <ele>455</ele>
        <time>2018-10-09T15:24:09Z</time>
      </trkpt>
      <trkpt lat="49.97544" lon="5.28086">
        <ele>455</ele>
        <time>2018-10-09T15:24:09Z</time>
      </trkpt>
      <trkpt lat="49.97539" lon="5.28087">
        <ele>459</ele>
        <time>2018-10-09T15:24:09Z</time>
      </trkpt>
      <trkpt lat="49.97534" lon="5.28085">
        <ele>459</ele>
        <time>2018-10-09T15:24:25Z</time>
      </trkpt>
      <trkpt lat="49.97529" lon="5.28081">
        <ele>459</ele>
        <time>2018-10-09T15:24:25Z</time>
      </trkpt>
      <trkpt lat="49.97525" lon="5.28083">
        <ele>459</ele>
        <time>2018-10-09T15:24:25Z</time>
      </trkpt>
      <trkpt lat="49.97523" lon="5.2809">
        <ele>459</ele>
        <time>2018-10-09T15:24:25Z</time>
      </trkpt>
      <trkpt lat="49.97522" lon="5.28098">
        <ele>464</ele>
        <time>2018-10-09T15:24:45Z</time>
      </trkpt>
      <trkpt lat="49.9752" lon="5.28104">
        <ele>464</ele>
        <time>2018-10-09T15:24:45Z</time>
      </trkpt>
      <trkpt lat="49.9752" lon="5.28105">
        <ele>464</ele>
        <time>2018-10-09T15:24:45Z</time>
      </trkpt>
      <trkpt lat="49.97518" lon="5.28109">
        <ele>464</ele>
        <time>2018-10-09T15:24:45Z</time>
      </trkpt>
      <trkpt lat="49.97514" lon="5.28117">
        <ele>464</ele>
        <time>2018-10-09T15:24:45Z</time>
      </trkpt>
      <trkpt lat="49.97511" lon="5.28125">
        <ele>468</ele>
        <time>2018-10-09T15:25:01Z</time>
      </trkpt>
      <trkpt lat="49.97511" lon="5.28133">
        <ele>468</ele>
        <time>2018-10-09T15:25:01Z</time>
      </trkpt>
      <trkpt lat="49.9751" lon="5.2814">
        <ele>468</ele>
        <time>2018-10-09T15:25:01Z</time>
      </trkpt>
      <trkpt lat="49.97509" lon="5.28147">
        <ele>468</ele>
        <time>2018-10-09T15:25:01Z</time>
      </trkpt>
      <trkpt lat="49.97506" lon="5.28155">
        <ele>467</ele>
        <time>2018-10-09T15:25:17Z</time>
      </trkpt>
      <trkpt lat="49.97503" lon="5.28163">
        <ele>467</ele>
        <time>2018-10-09T15:25:17Z</time>
      </trkpt>
      <trkpt lat="49.97499" lon="5.28167">
        <ele>467</ele>
        <time>2018-10-09T15:25:17Z</time>
      </trkpt>
      <trkpt lat="49.97499" lon="5.28174">
        <ele>467</ele>
        <time>2018-10-09T15:25:17Z</time>
      </trkpt>
      <trkpt lat="49.97496" lon="5.28184">
        <ele>465</ele>
        <time>2018-10-09T15:25:33Z</time>
      </trkpt>
      <trkpt lat="49.9749" lon="5.28196">
        <ele>465</ele>
        <time>2018-10-09T15:25:33Z</time>
      </trkpt>
      <trkpt lat="49.9749" lon="5.282">
        <ele>465</ele>
        <time>2018-10-09T15:25:33Z</time>
      </trkpt>
      <trkpt lat="49.97487" lon="5.28206">
        <ele>465</ele>
        <time>2018-10-09T15:25:33Z</time>
      </trkpt>
      <trkpt lat="49.97484" lon="5.28213">
        <ele>464</ele>
        <time>2018-10-09T15:25:49Z</time>
      </trkpt>
      <trkpt lat="49.97481" lon="5.28216">
        <ele>464</ele>
        <time>2018-10-09T15:25:49Z</time>
      </trkpt>
      <trkpt lat="49.97477" lon="5.2822">
        <ele>464</ele>
        <time>2018-10-09T15:25:49Z</time>
      </trkpt>
      <trkpt lat="49.97477" lon="5.28221">
        <ele>464</ele>
        <time>2018-10-09T15:25:49Z</time>
      </trkpt>
      <trkpt lat="49.97486" lon="5.28228">
        <ele>464</ele>
        <time>2018-10-09T15:26:53Z</time>
      </trkpt>
      <trkpt lat="49.97485" lon="5.28232">
        <ele>464</ele>
        <time>2018-10-09T15:26:53Z</time>
      </trkpt>
      <trkpt lat="49.97486" lon="5.28234">
        <ele>464</ele>
        <time>2018-10-09T15:26:53Z</time>
      </trkpt>
      <trkpt lat="49.97486" lon="5.28235">
        <ele>464</ele>
        <time>2018-10-09T15:26:53Z</time>
      </trkpt>
      <trkpt lat="49.97486" lon="5.28237">
        <ele>464</ele>
        <time>2018-10-09T15:26:53Z</time>
      </trkpt>
      <trkpt lat="49.97483" lon="5.2824">
        <ele>464</ele>
        <time>2018-10-09T15:27:09Z</time>
      </trkpt>
      <trkpt lat="49.97483" lon="5.28246">
        <ele>464</ele>
        <time>2018-10-09T15:27:09Z</time>
      </trkpt>
      <trkpt lat="49.97483" lon="5.28247">
        <ele>464</ele>
        <time>2018-10-09T15:27:09Z</time>
      </trkpt>
      <trkpt lat="49.97479" lon="5.28255">
        <ele>464</ele>
        <time>2018-10-09T15:27:09Z</time>
      </trkpt>
      <trkpt lat="49.9748" lon="5.28255">
        <ele>464</ele>
        <time>2018-10-09T15:27:41Z</time>
      </trkpt>
      <trkpt lat="49.97481" lon="5.28254">
        <ele>464</ele>
        <time>2018-10-09T15:27:41Z</time>
      </trkpt>
      <trkpt lat="49.97481" lon="5.28259">
        <ele>464</ele>
        <time>2018-10-09T15:27:41Z</time>
      </trkpt>
      <trkpt lat="49.97479" lon="5.28268">
        <ele>465</ele>
        <time>2018-10-09T15:27:41Z</time>
      </trkpt>
      <trkpt lat="49.97476" lon="5.28272">
        <ele>465</ele>
        <time>2018-10-09T15:27:41Z</time>
      </trkpt>
      <trkpt lat="49.97474" lon="5.28278">
        <ele>465</ele>
        <time>2018-10-09T15:27:57Z</time>
      </trkpt>
      <trkpt lat="49.97473" lon="5.28285">
        <ele>465</ele>
        <time>2018-10-09T15:27:57Z</time>
      </trkpt>
      <trkpt lat="49.97472" lon="5.28292">
        <ele>468</ele>
        <time>2018-10-09T15:27:57Z</time>
      </trkpt>
      <trkpt lat="49.9747" lon="5.28298">
        <ele>468</ele>
        <time>2018-10-09T15:27:57Z</time>
      </trkpt>
      <trkpt lat="49.97469" lon="5.28305">
        <ele>468</ele>
        <time>2018-10-09T15:28:13Z</time>
      </trkpt>
      <trkpt lat="49.97467" lon="5.28311">
        <ele>468</ele>
        <time>2018-10-09T15:28:13Z</time>
      </trkpt>
      <trkpt lat="49.97464" lon="5.28317">
        <ele>468</ele>
        <time>2018-10-09T15:28:13Z</time>
      </trkpt>
      <trkpt lat="49.97463" lon="5.28317">
        <ele>468</ele>
        <time>2018-10-09T15:28:13Z</time>
      </trkpt>
      <trkpt lat="49.97461" lon="5.28325">
        <ele>469</ele>
        <time>2018-10-09T15:28:29Z</time>
      </trkpt>
      <trkpt lat="49.97458" lon="5.28334">
        <ele>471</ele>
        <time>2018-10-09T15:28:29Z</time>
      </trkpt>
      <trkpt lat="49.97455" lon="5.28341">
        <ele>471</ele>
        <time>2018-10-09T15:28:29Z</time>
      </trkpt>
      <trkpt lat="49.97453" lon="5.28348">
        <ele>469</ele>
        <time>2018-10-09T15:28:29Z</time>
      </trkpt>
      <trkpt lat="49.97451" lon="5.28355">
        <ele>469</ele>
        <time>2018-10-09T15:28:45Z</time>
      </trkpt>
      <trkpt lat="49.97449" lon="5.28361">
        <ele>469</ele>
        <time>2018-10-09T15:28:45Z</time>
      </trkpt>
      <trkpt lat="49.97446" lon="5.28369">
        <ele>469</ele>
        <time>2018-10-09T15:28:45Z</time>
      </trkpt>
      <trkpt lat="49.97444" lon="5.28376">
        <ele>468</ele>
        <time>2018-10-09T15:28:45Z</time>
      </trkpt>
      <trkpt lat="49.97442" lon="5.28383">
        <ele>468</ele>
        <time>2018-10-09T15:29:01Z</time>
      </trkpt>
      <trkpt lat="49.9744" lon="5.2839">
        <ele>468</ele>
        <time>2018-10-09T15:29:01Z</time>
      </trkpt>
      <trkpt lat="49.97438" lon="5.28396">
        <ele>468</ele>
        <time>2018-10-09T15:29:01Z</time>
      </trkpt>
      <trkpt lat="49.97436" lon="5.28402">
        <ele>468</ele>
        <time>2018-10-09T15:29:01Z</time>
      </trkpt>
      <trkpt lat="49.97433" lon="5.28408">
        <ele>468</ele>
        <time>2018-10-09T15:29:17Z</time>
      </trkpt>
      <trkpt lat="49.97431" lon="5.28414">
        <ele>468</ele>
        <time>2018-10-09T15:29:17Z</time>
      </trkpt>
      <trkpt lat="49.9743" lon="5.2842">
        <ele>468</ele>
        <time>2018-10-09T15:29:17Z</time>
      </trkpt>
      <trkpt lat="49.97429" lon="5.28426">
        <ele>468</ele>
        <time>2018-10-09T15:29:17Z</time>
      </trkpt>
      <trkpt lat="49.97427" lon="5.28432">
        <ele>469</ele>
        <time>2018-10-09T15:29:33Z</time>
      </trkpt>
      <trkpt lat="49.97424" lon="5.2844">
        <ele>469</ele>
        <time>2018-10-09T15:29:33Z</time>
      </trkpt>
      <trkpt lat="49.97422" lon="5.28446">
        <ele>469</ele>
        <time>2018-10-09T15:29:33Z</time>
      </trkpt>
      <trkpt lat="49.97421" lon="5.28451">
        <ele>469</ele>
        <time>2018-10-09T15:29:33Z</time>
      </trkpt>
      <trkpt lat="49.97419" lon="5.28456">
        <ele>469</ele>
        <time>2018-10-09T15:29:53Z</time>
      </trkpt>
      <trkpt lat="49.97417" lon="5.28463">
        <ele>467</ele>
        <time>2018-10-09T15:29:53Z</time>
      </trkpt>
      <trkpt lat="49.97413" lon="5.2847">
        <ele>467</ele>
        <time>2018-10-09T15:29:53Z</time>
      </trkpt>
      <trkpt lat="49.9741" lon="5.28477">
        <ele>467</ele>
        <time>2018-10-09T15:29:53Z</time>
      </trkpt>
      <trkpt lat="49.97407" lon="5.28483">
        <ele>467</ele>
        <time>2018-10-09T15:30:09Z</time>
      </trkpt>
      <trkpt lat="49.97404" lon="5.28491">
        <ele>464</ele>
        <time>2018-10-09T15:30:09Z</time>
      </trkpt>
      <trkpt lat="49.97402" lon="5.28498">
        <ele>467</ele>
        <time>2018-10-09T15:30:09Z</time>
      </trkpt>
      <trkpt lat="49.974" lon="5.28505">
        <ele>467</ele>
        <time>2018-10-09T15:30:09Z</time>
      </trkpt>
      <trkpt lat="49.97397" lon="5.28512">
        <ele>467</ele>
        <time>2018-10-09T15:30:25Z</time>
      </trkpt>
      <trkpt lat="49.97394" lon="5.28519">
        <ele>464</ele>
        <time>2018-10-09T15:30:25Z</time>
      </trkpt>
      <trkpt lat="49.97392" lon="5.28525">
        <ele>464</ele>
        <time>2018-10-09T15:30:25Z</time>
      </trkpt>
      <trkpt lat="49.9739" lon="5.28532">
        <ele>464</ele>
        <time>2018-10-09T15:30:25Z</time>
      </trkpt>
      <trkpt lat="49.97387" lon="5.28539">
        <ele>464</ele>
        <time>2018-10-09T15:30:41Z</time>
      </trkpt>
      <trkpt lat="49.97385" lon="5.28545">
        <ele>460</ele>
        <time>2018-10-09T15:30:41Z</time>
      </trkpt>
      <trkpt lat="49.97383" lon="5.28552">
        <ele>460</ele>
        <time>2018-10-09T15:30:41Z</time>
      </trkpt>
      <trkpt lat="49.97381" lon="5.2856">
        <ele>460</ele>
        <time>2018-10-09T15:30:41Z</time>
      </trkpt>
      <trkpt lat="49.97379" lon="5.28566">
        <ele>460</ele>
        <time>2018-10-09T15:30:57Z</time>
      </trkpt>
      <trkpt lat="49.97376" lon="5.28574">
        <ele>457</ele>
        <time>2018-10-09T15:30:57Z</time>
      </trkpt>
      <trkpt lat="49.97374" lon="5.28578">
        <ele>467</ele>
        <time>2018-10-09T15:30:57Z</time>
      </trkpt>
      <trkpt lat="49.97375" lon="5.28579">
        <ele>467</ele>
        <time>2018-10-09T15:30:57Z</time>
      </trkpt>
      <trkpt lat="49.97373" lon="5.28584">
        <ele>467</ele>
        <time>2018-10-09T15:32:05Z</time>
      </trkpt>
      <trkpt lat="49.97371" lon="5.28593">
        <ele>467</ele>
        <time>2018-10-09T15:32:05Z</time>
      </trkpt>
      <trkpt lat="49.97369" lon="5.28598">
        <ele>463</ele>
        <time>2018-10-09T15:32:05Z</time>
      </trkpt>
      <trkpt lat="49.97366" lon="5.28607">
        <ele>463</ele>
        <time>2018-10-09T15:32:05Z</time>
      </trkpt>
      <trkpt lat="49.97364" lon="5.28614">
        <ele>463</ele>
        <time>2018-10-09T15:32:21Z</time>
      </trkpt>
      <trkpt lat="49.97362" lon="5.28623">
        <ele>463</ele>
        <time>2018-10-09T15:32:21Z</time>
      </trkpt>
      <trkpt lat="49.9736" lon="5.28632">
        <ele>459</ele>
        <time>2018-10-09T15:32:21Z</time>
      </trkpt>
      <trkpt lat="49.97358" lon="5.28639">
        <ele>459</ele>
        <time>2018-10-09T15:32:21Z</time>
      </trkpt>
      <trkpt lat="49.97356" lon="5.28646">
        <ele>459</ele>
        <time>2018-10-09T15:32:37Z</time>
      </trkpt>
      <trkpt lat="49.97354" lon="5.28654">
        <ele>456</ele>
        <time>2018-10-09T15:32:37Z</time>
      </trkpt>
      <trkpt lat="49.97352" lon="5.2866">
        <ele>456</ele>
        <time>2018-10-09T15:32:37Z</time>
      </trkpt>
      <trkpt lat="49.9735" lon="5.28667">
        <ele>456</ele>
        <time>2018-10-09T15:32:37Z</time>
      </trkpt>
      <trkpt lat="49.97349" lon="5.28674">
        <ele>456</ele>
        <time>2018-10-09T15:32:53Z</time>
      </trkpt>
      <trkpt lat="49.97347" lon="5.28681">
        <ele>459</ele>
        <time>2018-10-09T15:32:53Z</time>
      </trkpt>
      <trkpt lat="49.97346" lon="5.28689">
        <ele>459</ele>
        <time>2018-10-09T15:32:53Z</time>
      </trkpt>
      <trkpt lat="49.97345" lon="5.28697">
        <ele>459</ele>
        <time>2018-10-09T15:32:53Z</time>
      </trkpt>
      <trkpt lat="49.97343" lon="5.28705">
        <ele>459</ele>
        <time>2018-10-09T15:33:09Z</time>
      </trkpt>
      <trkpt lat="49.97341" lon="5.28714">
        <ele>456</ele>
        <time>2018-10-09T15:33:09Z</time>
      </trkpt>
      <trkpt lat="49.97339" lon="5.28719">
        <ele>456</ele>
        <time>2018-10-09T15:33:09Z</time>
      </trkpt>
      <trkpt lat="49.97337" lon="5.28728">
        <ele>456</ele>
        <time>2018-10-09T15:33:09Z</time>
      </trkpt>
      <trkpt lat="49.97335" lon="5.28736">
        <ele>456</ele>
        <time>2018-10-09T15:33:25Z</time>
      </trkpt>
      <trkpt lat="49.97334" lon="5.28744">
        <ele>452</ele>
        <time>2018-10-09T15:33:25Z</time>
      </trkpt>
      <trkpt lat="49.97332" lon="5.2875">
        <ele>452</ele>
        <time>2018-10-09T15:33:25Z</time>
      </trkpt>
      <trkpt lat="49.97331" lon="5.28752">
        <ele>452</ele>
        <time>2018-10-09T15:33:25Z</time>
      </trkpt>
      <trkpt lat="49.97328" lon="5.28756">
        <ele>452</ele>
        <time>2018-10-09T15:33:41Z</time>
      </trkpt>
      <trkpt lat="49.97326" lon="5.28762">
        <ele>452</ele>
        <time>2018-10-09T15:33:41Z</time>
      </trkpt>
      <trkpt lat="49.97324" lon="5.28769">
        <ele>452</ele>
        <time>2018-10-09T15:33:41Z</time>
      </trkpt>
      <trkpt lat="49.97322" lon="5.28775">
        <ele>452</ele>
        <time>2018-10-09T15:33:41Z</time>
      </trkpt>
      <trkpt lat="49.97321" lon="5.28782">
        <ele>452</ele>
        <time>2018-10-09T15:33:57Z</time>
      </trkpt>
      <trkpt lat="49.97319" lon="5.28789">
        <ele>452</ele>
        <time>2018-10-09T15:33:57Z</time>
      </trkpt>
      <trkpt lat="49.97318" lon="5.28796">
        <ele>451</ele>
        <time>2018-10-09T15:33:57Z</time>
      </trkpt>
      <trkpt lat="49.97317" lon="5.28804">
        <ele>451</ele>
        <time>2018-10-09T15:33:57Z</time>
      </trkpt>
      <trkpt lat="49.97316" lon="5.28811">
        <ele>451</ele>
        <time>2018-10-09T15:34:13Z</time>
      </trkpt>
      <trkpt lat="49.97316" lon="5.28818">
        <ele>451</ele>
        <time>2018-10-09T15:34:13Z</time>
      </trkpt>
      <trkpt lat="49.97316" lon="5.28824">
        <ele>451</ele>
        <time>2018-10-09T15:34:13Z</time>
      </trkpt>
      <trkpt lat="49.97316" lon="5.28831">
        <ele>451</ele>
        <time>2018-10-09T15:34:13Z</time>
      </trkpt>
    </trkseg>
  </trk>
</gpx>